Montreal Mirabel, Quebec

4:46 PM EDT on July 26, 2016 (GMT -0400)
Montreal International (Mirabel)

Weather History for CYMX - February, 2012

Change the Weather History Date:

Thursday, February 23, 2012

  Actual Average Record
Temperature  
Mean Temperature 32 °F -  
Max Temperature 35 °F 24 °F 35 °F (2012)
Min Temperature 26 °F 7 °F -14 °F (1999)
Degree Days  
Heating Degree Days 32    
Moisture  
Dew Point 28 °F    
Average Humidity 85    
Maximum Humidity 100    
Minimum Humidity 69    
Precipitation  
Precipitation 0.00 in - - ()
Sea Level Pressure  
Sea Level Pressure 29.54 in    
Wind  
Wind Speed 5 mph ()    
Max Wind Speed 12 mph    
Max Gust Speed 17 mph    
Visibility 11.7 miles    
Events Snow    
Averages and records for this station are not official NWS values.
T = Trace of Precipitation, MM = Missing Value Source: Averaged Metar Reports

Daily Weather History Graph

Daily Weather History Graph

Search for Another Location

Airport or City:

Trip Planner

Search our weather history database for the weather conditions in past years. The results will help you decide how hot, cold, wet, or windy it might be!

Date:

Astronomy

Feb. 23, 2012 Rise Set
Actual Time 6:46 AM EST 5:33 PM EST
Civil Twilight 6:15 AM EST 6:03 PM EST
Nautical Twilight 5:41 AM EST 6:38 PM EST
Astronomical Twilight 5:07 AM EST 7:12 PM EST
Moon 7:03 AM EST (2/23) 7:46 PM EST (2/23)
Length of Visible Light 11h 47m
Length of Day
10h 47m
Waxing Crescent, 3% of the Moon is Illuminated
Feb 23
Waxing Crescent
Feb 29
First Quarter
Mar 8
Full
Mar 14
Last Quarter
Mar 22
New

Hourly Weather History & Observations

Time (EST) Temp. Windchill Dew Point Humidity Pressure Visibility Wind Dir Wind Speed Gust Speed Precip Events Conditions
12:00 AM 32.0 °F - 30.2 °F 93% 29.44 in 15.0 mi WSW 2.3 mph - N/A   Mostly Cloudy
1:00 AM 32.0 °F - 32.0 °F 100% 29.42 in 15.0 mi South 2.3 mph - N/A   Mostly Cloudy
2:00 AM 33.8 °F 30.8 °F 32.0 °F 93% 29.42 in 15.0 mi SSW 3.5 mph - N/A   Mostly Cloudy
3:00 AM 32.0 °F 28.7 °F 32.0 °F 100% 29.41 in 15.0 mi SSW 3.5 mph - N/A   Mostly Cloudy
4:00 AM 32.0 °F 28.7 °F 30.2 °F 93% 29.41 in 15.0 mi SSW 3.5 mph - N/A   Mostly Cloudy
5:00 AM 32.0 °F - 32.0 °F 100% 29.41 in 10.0 mi WSW 2.3 mph - N/A   Mostly Cloudy
6:00 AM 32.0 °F 28.7 °F 30.2 °F 93% 29.42 in 10.0 mi West 3.5 mph - N/A   Overcast
7:00 AM 30.2 °F - 30.2 °F 100% 29.43 in 6.0 mi West 2.3 mph - N/A   Mostly Cloudy
8:00 AM 30.2 °F 23.4 °F 30.2 °F 100% 29.46 in 5.0 mi West 6.9 mph - N/A   Mostly Cloudy
9:00 AM 33.8 °F 25.8 °F 28.4 °F 81% 29.47 in 12.0 mi WSW 10.4 mph - N/A   Scattered Clouds
10:00 AM 33.8 °F 26.4 °F 28.4 °F 81% 29.49 in 15.0 mi SW 9.2 mph - N/A   Mostly Cloudy
11:00 AM 33.8 °F 25.3 °F 28.4 °F 81% 29.50 in 15.0 mi SW 11.5 mph - N/A   Overcast
12:00 PM 33.8 °F 25.3 °F 28.4 °F 81% 29.51 in 10.0 mi WSW 11.5 mph - N/A   Overcast
12:06 PM 33.8 °F 25.8 °F 28.4 °F 81% - 10.0 mi WSW 10.4 mph 17.3 mph N/A Snow Light Snow Showers
1:00 PM 32.0 °F 24.8 °F 30.2 °F 93% 29.52 in 3.0 mi SW 8.1 mph - N/A Snow Light Snow
2:00 PM 33.8 °F 25.8 °F 30.2 °F 87% 29.53 in 6.0 mi WSW 10.4 mph - N/A Snow Light Snow Showers
3:00 PM 35.6 °F 29.2 °F 30.2 °F 81% 29.55 in 15.0 mi West 8.1 mph - N/A Snow Light Snow Showers
4:00 PM 35.6 °F 27.5 °F 28.4 °F 75% 29.58 in 15.0 mi WSW 11.5 mph - N/A   Mostly Cloudy
5:00 PM 35.6 °F 28.6 °F 26.6 °F 70% 29.61 in 15.0 mi WSW 9.2 mph - N/A   Scattered Clouds
6:00 PM 33.8 °F 28.6 °F 26.6 °F 75% 29.64 in 25.0 mi WSW 5.8 mph - N/A   Partly Cloudy
7:00 PM 33.8 °F 28.6 °F 24.8 °F 70% 29.69 in 25.0 mi WSW 5.8 mph - N/A   Partly Cloudy
8:00 PM 32.0 °F 27.5 °F 23.0 °F 69% 29.71 in 25.0 mi WSW 4.6 mph - N/A   Clear
9:00 PM 30.2 °F 26.7 °F 23.0 °F 75% 29.74 in 25.0 mi WSW 3.5 mph - N/A   Clear
10:00 PM 30.2 °F 26.7 °F 23.0 °F 75% 29.75 in 25.0 mi WSW 3.5 mph - N/A   Clear
11:00 PM 26.6 °F 22.6 °F 21.2 °F 80% 29.76 in 25.0 mi South 3.5 mph - N/A   Clear